User: anonymous   Login
Location: Houhaj�rvi
(61.2833°N, 23.0000°E)
Time: 18:09:37
(UTC+00:00)
Language:

NOSS 8 (A) - Orbit

View from above orbital plane
View from above orbital plane
View from above satellite
View from above satellite

Ground track
Ground track

The orbit data is extracted from the following two-line orbital elements,

1 17997U 87043A   20150.96694288 0.00001014  00000-0  78114-4 0    09
2 17997  63.2986 126.9887 0931346  65.2368 294.7558 13.49388547    08
Epoch (UTC): 29 May 2020 23:12:23
Eccentricity: 0.0931346
inclination: 63.2986°
perigee height: 380 km
apogee height: 1768 km
right ascension of ascending node: 126.9887°
argument of perigee: 65.2368°
revolutions per day: 13.49388547
mean anomaly at epoch: 294.7558°
orbit number at epoch: 0

The dashed part of the orbit path shows where the satellite is in the earth's shadow,  

DLR